Weather History for KE11 - October, 2012

Change the Weather History Date:

Thursday, October 4, 2012

  Actual Average (KMAF) Record (KMAF)
Temperature  
Mean Temperature 64 °F 69 °F  
Max Temperature 72 °F 82 °F 96 °F (2000)
Min Temperature 56 °F 56 °F 41 °F (1932)
Degree Days  
Heating Degree Days 1 1  
Month to date heating degree days 4  
Since 1 July heating degree days 15  
Cooling Degree Days 0 5  
Month to date cooling degree days 22  
Year to date cooling degree days 2201  
Growing Degree Days 14 (Base 50)    
Moisture  
Dew Point 49 °F    
Average Humidity 58    
Maximum Humidity 85    
Minimum Humidity 41    
Precipitation  
Precipitation 0.00 in 0.06 in 1.36 in (1986)
Month to date precipitation 0.26  
Year to date precipitation 11.84  
Snow  
Snow - - - ()
Month to date snowfall  
Since 1 July snowfall  
Since 1 September snowfall  
Snow Depth -    
Sea Level Pressure  
Sea Level Pressure 30.13 in    
Wind  
Wind Speed 11 mph ()    
Max Wind Speed 23 mph    
Max Gust Speed 31 mph    
Visibility 9.8 miles    
Events      
T = Trace of Precipitation, MM = Missing Value Source: Averaged Metar Reports

Daily Weather History Graph

Daily Weather History Graph

Search for Another Location

Airport or City:

Trip Planner

Search our weather history database for the weather conditions in past years. The results will help you decide how hot, cold, wet, or windy it might be!

Date:

Astronomy

Oct. 04, 2012 Rise Set
Actual Time 7:46 AM CDT 7:30 PM CDT
Civil Twilight 7:21 AM CDT 7:54 PM CDT
Nautical Twilight 6:53 AM CDT 8:23 PM CDT
Astronomical Twilight 6:25 AM CDT 8:51 PM CDT
Moon 10:23 PM CDT (10/4) 11:50 AM CDT (10/4)
Length of Visible Light 12h 32m
Length of Day
11h 43m
Waning Gibbous, 82% of the Moon is Illuminated
Oct 4
Waning Gibbous
Oct 8
Last Quarter
Oct 15
New
Oct 21
First Quarter
Oct 29
Full

Hourly Weather History & Observations

Time (CDT) Temp. Dew Point Humidity Pressure Visibility Wind Dir Wind Speed Gust Speed Precip Events Conditions
12:15 AM 69.8 °F 53.1 °F 55% 29.98 in 10.0 mi SSW 13.8 mph - N/A   Clear
12:35 AM 69.3 °F 53.1 °F 56% 29.98 in 10.0 mi SSW 16.1 mph 19.6 mph N/A   Clear
12:55 AM 68.9 °F 53.2 °F 57% 29.98 in 10.0 mi SW 12.7 mph - N/A   Clear
1:15 AM 68.4 °F 53.6 °F 59% 29.98 in 10.0 mi SSW 11.5 mph - N/A   Clear
1:35 AM 68.0 °F 53.6 °F 60% 29.99 in 10.0 mi SSW 12.7 mph - N/A   Clear
1:55 AM 67.1 °F 53.6 °F 62% 29.99 in 10.0 mi SSW 11.5 mph 16.1 mph N/A   Clear
2:15 AM 66.9 °F 53.6 °F 62% 29.99 in 10.0 mi SW 13.8 mph - N/A   Clear
2:35 AM 66.4 °F 53.6 °F 63% 29.99 in 10.0 mi SSW 13.8 mph 17.3 mph N/A   Clear
2:55 AM 65.8 °F 53.6 °F 65% 29.99 in 10.0 mi SW 12.7 mph - N/A   Clear
3:15 AM 65.3 °F 53.8 °F 66% 29.99 in 10.0 mi SW 10.4 mph - N/A   Clear
3:35 AM 65.3 °F 53.6 °F 66% 29.99 in 10.0 mi SSW 12.7 mph - N/A   Clear
3:55 AM 64.8 °F 54.0 °F 68% 29.99 in 10.0 mi SW 12.7 mph - N/A   Clear
4:15 AM 64.0 °F 53.8 °F 69% 29.99 in 10.0 mi SW 9.2 mph - N/A   Clear
4:35 AM 63.9 °F 53.8 °F 70% 29.99 in 10.0 mi WSW 10.4 mph - N/A   Clear
4:55 AM 63.5 °F 54.0 °F 71% 29.99 in 10.0 mi SW 9.2 mph - N/A   Clear
5:15 AM 62.6 °F 54.1 °F 74% 30.00 in 10.0 mi SW 10.4 mph - N/A   Clear
5:35 AM 62.2 °F 54.5 °F 76% 30.01 in 10.0 mi SW 10.4 mph - N/A   Clear
5:55 AM 61.9 °F 54.5 °F 77% 30.02 in 10.0 mi SW 12.7 mph - N/A   Clear
6:15 AM 61.5 °F 54.5 °F 78% 30.02 in 10.0 mi WSW 11.5 mph - N/A   Clear
6:35 AM 61.2 °F 54.0 °F 77% 30.06 in 10.0 mi NNW 12.7 mph 18.4 mph N/A   Clear
6:55 AM 60.3 °F 51.8 °F 74% 30.08 in 10.0 mi NNW 11.5 mph - N/A   Clear
7:15 AM 59.4 °F 48.7 °F 68% 30.09 in 10.0 mi North 12.7 mph 19.6 mph N/A   Clear
7:35 AM 59.0 °F 44.6 °F 59% 30.11 in 10.0 mi North 13.8 mph 18.4 mph N/A   Scattered Clouds
7:55 AM 58.1 °F 43.2 °F 58% 30.11 in 7.0 mi North 16.1 mph 26.5 mph N/A   Overcast
8:15 AM 57.4 °F 42.3 °F 57% 30.12 in 7.0 mi North 17.3 mph 24.2 mph N/A   Overcast
8:35 AM 56.8 °F 42.4 °F 59% 30.14 in 7.0 mi NNE 19.6 mph 26.5 mph N/A   Overcast
8:55 AM 56.7 °F 41.0 °F 56% 30.15 in 7.0 mi NNE 21.9 mph 31.1 mph N/A   Mostly Cloudy
9:15 AM 57.6 °F 41.5 °F 55% 30.17 in 7.0 mi North 18.4 mph - N/A   Overcast
9:35 AM 57.7 °F 40.6 °F 53% 30.18 in 10.0 mi NNE 23.0 mph 29.9 mph N/A   Scattered Clouds
9:55 AM 58.5 °F 41.0 °F 52% 30.18 in 10.0 mi NNE 21.9 mph 29.9 mph N/A   Clear
10:15 AM 59.4 °F 41.4 °F 51% 30.19 in 10.0 mi NNE 19.6 mph 29.9 mph N/A   Clear
10:35 AM 60.1 °F 41.9 °F 51% 30.20 in 10.0 mi NNE 20.7 mph 29.9 mph N/A   Clear
10:55 AM 61.2 °F 42.1 °F 50% 30.21 in 10.0 mi North 21.9 mph 25.3 mph N/A   Clear
11:15 AM 61.7 °F 42.6 °F 50% 30.21 in 10.0 mi North 20.7 mph 24.2 mph N/A   Clear
11:35 AM 63.3 °F 43.3 °F 48% 30.22 in 10.0 mi NNE 18.4 mph 24.2 mph N/A   Clear
11:55 AM 64.4 °F 43.9 °F 47% 30.22 in 10.0 mi NNE 17.3 mph 25.3 mph N/A   Clear
12:15 PM 64.6 °F 44.6 °F 48% 30.23 in 10.0 mi North 17.3 mph 27.6 mph N/A   Clear
12:35 PM 65.7 °F 45.0 °F 47% 30.23 in 10.0 mi North 16.1 mph 24.2 mph N/A   Clear
12:55 PM 66.2 °F 45.1 °F 47% 30.23 in 10.0 mi North 16.1 mph 23.0 mph N/A   Clear
1:35 PM 67.5 °F 45.5 °F 45% 30.23 in 10.0 mi NNE 11.5 mph 19.6 mph N/A   Clear
1:55 PM 68.4 °F 45.7 °F 44% 30.22 in 10.0 mi North 12.7 mph 19.6 mph N/A   Clear
2:15 PM 68.7 °F 46.0 °F 44% 30.21 in 10.0 mi NNE 12.7 mph 17.3 mph N/A   Clear
2:35 PM 70.2 °F 46.4 °F 43% 30.21 in 10.0 mi NE 8.1 mph 18.4 mph N/A   Clear
2:55 PM 70.5 °F 46.9 °F 43% 30.20 in 10.0 mi NNE 12.7 mph 16.1 mph N/A   Clear
3:15 PM 69.8 °F 46.2 °F 43% 30.20 in 10.0 mi NE 8.1 mph 17.3 mph N/A   Clear
3:35 PM 70.7 °F 46.6 °F 42% 30.19 in 10.0 mi NNE 9.2 mph - N/A   Clear
3:55 PM 70.5 °F 46.6 °F 42% 30.19 in 10.0 mi NNE 9.2 mph - N/A   Clear
4:15 PM 71.2 °F 46.9 °F 42% 30.18 in 10.0 mi NE 10.4 mph 17.3 mph N/A   Clear
4:35 PM 71.8 °F 46.9 °F 41% 30.18 in 10.0 mi ENE 8.1 mph - N/A   Clear
4:55 PM 72.0 °F 47.1 °F 41% 30.18 in 10.0 mi East 8.1 mph - N/A   Clear
5:15 PM 71.6 °F 47.1 °F 42% 30.18 in 10.0 mi East 8.1 mph - N/A   Clear
5:55 PM 71.8 °F 47.5 °F 42% 30.17 in 10.0 mi ENE 6.9 mph - N/A   Clear
6:15 PM 71.1 °F 47.3 °F 43% 30.17 in 10.0 mi ENE 3.5 mph - N/A   Clear
6:35 PM 70.7 °F 47.1 °F 43% 30.17 in 10.0 mi ENE 4.6 mph - N/A   Clear
6:55 PM 70.0 °F 47.5 °F 45% 30.17 in 10.0 mi East 4.6 mph - N/A   Clear
7:15 PM 69.1 °F 48.4 °F 48% 30.17 in 10.0 mi East 4.6 mph - N/A   Clear
7:35 PM 66.6 °F 49.1 °F 53% 30.17 in 10.0 mi ESE 4.6 mph - N/A   Clear
7:55 PM 64.9 °F 49.6 °F 58% 30.18 in 10.0 mi ESE 4.6 mph - N/A   Clear
8:15 PM 63.7 °F 50.4 °F 62% 30.18 in 10.0 mi Calm Calm - N/A   Clear
8:35 PM 62.6 °F 50.5 °F 65% 30.17 in 10.0 mi ESE 5.8 mph - N/A   Clear
8:55 PM 61.9 °F 50.9 °F 67% 30.17 in 10.0 mi ESE 3.5 mph - N/A   Clear
9:15 PM 61.7 °F 50.9 °F 68% 30.18 in 10.0 mi ESE 3.5 mph - N/A   Clear
9:35 PM 60.8 °F 51.4 °F 71% 30.18 in 10.0 mi ESE 4.6 mph - N/A   Clear
9:55 PM 60.3 °F 52.0 °F 74% 30.18 in 10.0 mi ESE 4.6 mph - N/A   Clear
10:15 PM 59.9 °F 52.0 °F 75% 30.18 in 10.0 mi ESE 6.9 mph - N/A   Clear
10:35 PM 59.5 °F 52.0 °F 76% 30.18 in 10.0 mi ESE 6.9 mph - N/A   Clear
10:55 PM 58.8 °F 52.3 °F 79% 30.18 in 10.0 mi ESE 5.8 mph - N/A   Clear
11:15 PM 57.7 °F 52.3 °F 82% 30.18 in 10.0 mi SE 6.9 mph - N/A   Clear
11:35 PM 57.2 °F 52.3 °F 84% 30.18 in 10.0 mi ESE 5.8 mph - N/A   Clear
11:55 PM 56.7 °F 52.3 °F 85% 30.18 in 10.0 mi ESE 5.8 mph - N/A   Clear